Wind_Speed
13 13 11 11 11 11 11 8 4 4 4 5 5 5 5 6 7 9 10 11 11 11 12 13 14 15 15 16 17 17 16 14 17 16 15 18 15 16 21 19 15 17 21 22 23
13 11 10 12 13 13 13 13 10 8 6 8 11 12 12 13 13 14 15 16 16 16 16 17 17 18 18 19 18 17 17 16 16 17 17 17 17 18 20 19 18 16 17 18 22
10 8 10 13 14 14 13 14 13 12 11 10 8 7 10 14 16 16 16 17 17 18 18 19 19 19 18 17 16 15 14 14 15 16 18 18 17 14 18 20 21 22 24 24 25
9 9 11 12 13 14 14 15 15 14 13 13 12 10 9 5 7 10 12 13 15 16 16 17 16 16 15 14 14 14 14 15 15 16 16 17 17 16 19 22 24 25 25 28 28
8 9 11 12 12 15 16 16 15 16 16 13 12 12 12 9 8 7 7 8 9 10 10 11 11 12 13 13 13 13 13 12 13 13 17 19 21 22 21 25 27 25 25 28 32
9 10 11 13 14 17 16 16 16 17 17 16 14 13 11 10 9 9 9 9 9 9 9 10 10 11 12 12 12 13 13 13 15 15 18 21 23 25 24 24 26 27 29 32 38
9 10 15 18 18 19 17 17 18 19 18 16 16 14 11 9 9 10 10 9 9 10 10 11 12 13 14 16 16 18 19 16 13 16 22 28 29 31 35 38 37 41 43 45 48
12 18 18 17 20 21 20 19 19 20 20 19 16 14 13 11 12 12 14 12 13 13 12 12 13 14 16 16 17 20 19 21 19 20 21 24 29 37 41 44 49 49 51 52 53
15 15 16 17 18 20 22 21 19 18 19 17 16 15 14 14 14 14 14 13 14 17 15 16 18 18 19 19 17 18 20 22 27 29 29 33 29 30 40 44 45 50 55 57 62
12 12 13 14 17 19 21 22 19 18 16 16 16 15 15 16 16 15 14 15 16 16 19 18 17 17 19 22 23 24 25 28 31 34 33 34 37 42 41 44 55 61 64 70 73
9 8 11 13 16 19 22 23 20 18 17 15 15 15 17 17 15 15 15 15 17 19 20 19 19 20 20 21 24 26 29 32 32 37 40 42 45 44 48 56 62 69 74 78 81
6 2 8 13 16 19 22 22 21 19 17 17 16 15 15 15 14 15 14 16 17 17 17 19 22 23 26 28 31 32 33 35 36 39 44 42 46 52 59 65 70 74 77 82 84
10 7 9 11 16 19 22 22 20 19 17 16 15 15 15 15 15 15 15 17 21 24 25 25 25 27 29 32 32 33 36 39 43 44 43 47 56 61 70 72 77 84 85 88 88
8 6 8 11 15 19 22 21 21 20 18 16 16 15 16 16 16 17 20 22 22 22 22 24 26 28 31 35 38 41 40 41 41 43 47 56 61 69 72 78 82 86 88 90 92
6 4 6 11 16 20 23 22 19 19 17 15 15 15 15 16 16 16 16 18 21 21 23 25 28 31 34 38 42 43 44 41 44 47 53 62 67 71 84 86 87 88 92 94 94
4 1 6 12 17 20 24 21 21 21 18 16 17 16 16 17 18 21 19 19 20 23 25 27 30 32 38 41 47 49 51 53 56 59 61 65 69 79 84 84 85 89 88 87 83
6 2 6 13 18 22 22 21 22 21 17 17 17 17 17 18 17 15 18 18 20 23 26 30 32 37 44 46 51 55 59 61 62 62 58 63 72 83 87 85 89 88 83 79 78
13 10 9 14 18 21 22 22 22 23 19 17 17 17 19 18 18 20 19 22 26 30 35 39 44 45 50 52 56 60 61 60 59 59 61 65 75 83 87 85 85 82 81 77 72
13 15 15 17 21 21 23 23 24 21 20 19 17 13 16 20 22 22 25 28 32 34 39 45 46 49 51 54 58 59 59 61 63 65 70 73 81 84 78 86 89 83 74 64 53
11 10 10 14 20 21 21 26 24 22 20 19 17 17 18 22 24 25 28 30 32 38 43 46 49 51 54 58 59 59 60 62 66 75 78 74 84 85 93 91 84 76 65 52 42
9 7 12 15 17 18 20 25 22 22 20 19 18 18 21 24 27 29 34 38 39 44 44 47 49 54 57 58 60 60 62 67 70 76 82 89 89 83 87 82 74 63 55 45 36
11 9 13 16 17 19 22 23 21 21 20 18 18 19 23 29 32 35 38 39 43 44 50 52 53 55 58 60 60 60 64 72 77 78 81 89 93 88 84 74 62 58 54 47 30
12 11 16 17 19 21 21 23 24 23 21 21 21 22 26 29 33 36 41 43 43 47 50 55 58 55 56 57 59 62 73 75 79 84 87 88 90 82 72 63 53 50 41 37 27
13 14 17 20 22 22 23 25 25 22 23 23 24 25 28 30 35 40 44 45 48 49 51 55 58 57 57 58 63 69 71 77 83 86 89 86 85 76 67 52 44 37 33 28 31
18 18 20 21 22 23 24 26 24 22 23 24 24 26 30 34 38 42 45 47 48 51 55 57 59 56 57 60 65 71 75 81 82 85 83 83 76 67 55 43 33 30 28 27 20
23 21 23 23 24 25 26 27 24 23 24 25 27 29 33 37 41 45 47 48 50 54 60 59 58 58 59 61 68 71 79 81 83 81 82 73 64 53 47 35 25 22 23 23 25
23 21 22 25 26 26 25 27 28 25 27 28 30 32 36 40 43 47 47 49 53 60 61 58 56 58 59 65 67 75 77 79 83 74 70 63 57 50 42 30 19 19 23 28 31
Wind_Direction
103 95 81 66 55 52 44 34 2 310 299 297 297 296 295 299 303 307 310 307 303 298 297 297 297 296 297 297 298 303 302 295 293 293 298 300 305 300 304 310 301 296 300 308 309
104 91 68 51 51 46 44 41 35 22 339 291 281 281 285 286 289 291 294 294 295 296 295 295 297 297 295 298 298 298 297 299 300 303 303 301 307 309 305 310 307 302 301 304 303
93 73 54 45 41 40 35 31 28 28 28 19 4 328 289 283 284 286 285 285 286 288 290 294 296 297 296 299 301 302 301 301 300 299 301 303 305 310 311 312 307 309 309 309 310
77 63 47 42 38 31 25 20 17 14 13 13 17 14 7 340 309 300 294 293 296 298 300 303 305 305 307 307 307 307 304 302 302 304 304 303 305 311 308 303 305 308 312 314 315
71 57 50 40 34 35 31 23 14 6 4 5 6 9 14 11 1 355 338 327 322 322 319 319 319 319 316 313 311 307 305 305 302 306 307 308 309 312 314 312 313 316 319 319 315
67 55 44 53 55 45 33 23 12 360 358 359 358 1 8 8 11 11 4 357 350 343 338 333 332 331 326 320 315 308 308 311 313 322 312 310 319 316 319 315 311 312 309 308 312
65 61 74 70 57 42 32 18 9 0 356 356 353 354 358 2 5 5 360 353 347 343 340 341 339 333 326 322 325 319 320 323 319 312 324 328 331 323 317 316 320 319 315 312 308
87 88 76 65 47 34 29 19 7 360 355 356 1 1 358 359 354 349 353 352 350 348 342 338 335 332 329 329 330 331 323 318 326 331 334 327 325 323 322 321 320 316 311 308 308
108 86 65 52 38 26 19 15 8 3 356 359 358 360 360 353 348 344 343 346 348 344 342 340 341 340 336 332 329 325 329 336 334 331 329 325 327 314 311 311 312 313 309 305 305
114 81 54 45 30 18 10 6 6 3 2 4 2 356 353 345 343 344 347 345 345 346 341 341 339 334 331 340 339 338 337 333 328 324 322 318 313 310 309 308 314 314 313 319 316
139 88 41 38 22 13 7 2 3 3 7 1 354 341 340 342 343 346 343 344 345 339 336 334 334 339 339 338 338 334 330 325 322 317 314 312 309 306 305 308 308 311 316 318 317
162 171 51 32 20 14 8 5 5 1 358 356 351 351 350 351 348 340 340 335 334 336 331 330 333 337 337 336 330 327 323 318 316 313 310 311 306 307 311 314 317 318 317 317 316
133 83 42 23 14 7 1 4 2 357 359 357 357 1 1 1 358 350 344 341 339 336 337 335 334 332 331 327 324 321 318 316 314 312 311 311 317 323 325 323 321 319 317 316 314
138 85 49 18 11 3 352 356 2 359 357 358 6 7 3 357 351 344 340 336 338 339 338 334 332 327 325 324 321 318 315 314 313 311 317 324 328 326 323 320 318 316 315 312 311
141 88 18 8 3 356 355 355 357 0 359 1 359 354 349 347 337 336 332 334 338 337 334 330 329 326 319 316 316 312 308 309 311 314 320 329 325 322 322 319 320 319 316 310 306
167 37 7 2 357 350 352 353 353 357 358 353 348 347 342 338 339 331 336 339 337 336 332 327 322 317 313 312 314 314 312 310 310 310 316 323 326 324 322 322 320 315 309 304 301
202 299 351 355 346 344 343 349 349 351 350 344 339 336 333 332 331 338 334 324 326 326 323 325 323 315 312 315 315 315 313 313 313 316 322 326 326 324 323 320 315 308 304 301 295
230 250 306 329 333 343 343 345 345 343 340 340 334 332 328 328 330 327 321 316 323 329 328 327 327 325 321 320 316 314 316 318 319 318 319 326 326 323 321 317 309 304 303 304 300
253 263 279 290 304 320 336 339 340 337 335 332 333 332 329 332 328 324 318 315 318 323 326 327 327 325 322 322 318 317 316 317 316 320 323 325 324 317 316 310 311 309 305 304 302
273 276 293 299 302 308 323 335 338 334 332 333 330 325 326 330 329 326 322 323 324 323 325 324 326 325 324 322 318 318 317 318 325 327 323 322 319 317 317 315 313 313 313 312 308
254 271 302 305 306 312 319 329 330 332 332 330 326 323 324 329 327 325 326 324 321 322 324 326 327 326 324 321 320 320 319 322 324 325 321 320 323 320 319 317 321 319 314 306 299
231 293 306 312 311 316 317 328 327 331 334 334 328 321 322 323 323 325 326 323 323 325 325 326 324 326 324 322 320 323 324 324 327 322 323 322 323 320 321 322 319 310 309 305 289
253 289 300 300 308 310 313 325 323 328 329 333 332 325 323 322 322 325 323 325 324 325 326 326 327 326 323 323 324 325 325 329 324 326 325 321 322 322 320 319 320 314 309 307 290
252 286 304 303 301 308 309 320 322 326 326 328 327 324 323 322 323 323 325 324 324 325 326 328 329 326 323 325 324 328 329 329 328 323 324 323 320 321 324 326 327 321 312 297 284
263 285 299 305 302 306 311 317 319 323 325 329 327 325 324 324 324 324 324 327 328 329 330 331 327 325 325 328 328 330 331 330 327 326 324 324 323 328 327 329 334 330 338 341 319
260 280 293 298 296 300 309 318 320 322 324 327 325 325 322 323 327 326 326 329 331 334 332 329 325 327 328 330 332 331 330 329 326 325 325 323 322 327 330 336 327 335 345 339 334
261 280 294 295 294 298 303 313 317 318 318 321 324 323 324 325 327 330 328 331 334 332 330 326 325 328 331 331 332 329 329 327 325 330 325 323 331 338 337 341 327 335 342 338 333
Height
5897 5898 5898 5898 5897 5896 5895 5894 5893 5892 5892 5891 5891 5891 5890 5890 5890 5890 5890 5889 5888 5887 5886 5885 5884 5883 5882 5881 5880 5880 5880 5879 5877 5876 5876 5873 5874 5871 5869 5870 5870 5867 5863 5861 5857
5899 5899 5899 5899 5898 5897 5896 5895 5893 5892 5890 5890 5889 5889 5889 5889 5889 5888 5888 5887 5886 5885 5884 5883 5882 5881 5880 5879 5878 5877 5876 5875 5874 5872 5871 5870 5869 5867 5865 5864 5863 5863 5861 5859 5855
5900 5900 5900 5900 5899 5898 5896 5895 5893 5892 5890 5888 5887 5886 5886 5885 5886 5885 5884 5883 5883 5882 5881 5880 5879 5878 5877 5876 5875 5874 5873 5871 5870 5869 5867 5866 5866 5865 5861 5859 5857 5855 5854 5854 5851
5901 5901 5901 5901 5900 5898 5897 5895 5893 5892 5890 5888 5886 5885 5884 5883 5883 5882 5881 5881 5880 5879 5878 5877 5876 5875 5874 5873 5872 5871 5870 5869 5867 5866 5864 5862 5861 5860 5857 5855 5853 5852 5850 5848 5847
5902 5903 5902 5902 5900 5899 5898 5896 5894 5891 5889 5888 5886 5884 5883 5882 5881 5880 5879 5878 5877 5876 5876 5875 5874 5873 5872 5871 5871 5869 5868 5866 5864 5863 5861 5860 5858 5857 5856 5852 5849 5849 5846 5842 5838
5904 5904 5904 5903 5902 5901 5899 5897 5894 5891 5889 5887 5886 5884 5883 5882 5881 5879 5878 5877 5876 5875 5874 5873 5872 5871 5870 5869 5868 5867 5866 5866 5865 5864 5859 5857 5855 5852 5851 5849 5846 5844 5841 5838 5834
5905 5905 5904 5904 5903 5901 5899 5897 5894 5891 5889 5887 5886 5884 5882 5882 5880 5879 5878 5877 5876 5874 5874 5873 5872 5871 5869 5868 5867 5866 5865 5864 5863 5862 5858 5853 5852 5847 5842 5838 5837 5833 5829 5825 5822
5905 5905 5905 5904 5903 5902 5900 5897 5894 5891 5888 5886 5885 5883 5883 5882 5881 5880 5878 5877 5876 5875 5874 5873 5871 5870 5868 5867 5865 5862 5861 5860 5859 5856 5855 5853 5848 5838 5831 5825 5820 5818 5814 5812 5809
5906 5906 5905 5905 5903 5902 5899 5897 5893 5890 5888 5886 5885 5883 5883 5881 5880 5879 5878 5877 5876 5875 5874 5873 5871 5869 5867 5865 5864 5862 5859 5855 5851 5849 5848 5843 5842 5836 5829 5823 5816 5810 5802 5797 5790
5906 5906 5905 5905 5904 5902 5899 5896 5892 5890 5888 5886 5885 5884 5882 5880 5879 5878 5877 5877 5876 5875 5873 5872 5870 5867 5865 5861 5860 5857 5855 5852 5848 5845 5843 5838 5832 5826 5821 5814 5805 5796 5789 5781 5775
5906 5906 5905 5904 5903 5901 5898 5895 5894 5890 5887 5885 5884 5882 5880 5880 5879 5877 5876 5876 5875 5875 5872 5869 5867 5864 5862 5860 5857 5854 5852 5848 5844 5838 5835 5829 5823 5816 5810 5802 5793 5784 5775 5766 5757
5905 5906 5905 5904 5902 5900 5897 5894 5891 5889 5886 5884 5882 5880 5879 5878 5877 5877 5875 5874 5871 5869 5867 5866 5863 5861 5858 5855 5853 5849 5845 5841 5838 5832 5826 5820 5812 5802 5794 5785 5778 5768 5759 5749 5739
5904 5904 5904 5902 5900 5898 5896 5894 5890 5887 5885 5883 5880 5879 5878 5878 5876 5875 5873 5871 5870 5869 5866 5864 5861 5857 5855 5852 5848 5844 5839 5834 5827 5821 5814 5809 5797 5785 5773 5765 5757 5748 5738 5727 5716
5903 5903 5902 5901 5900 5897 5894 5891 5889 5886 5884 5883 5879 5879 5877 5876 5875 5873 5872 5872 5869 5865 5862 5860 5857 5854 5851 5847 5843 5837 5832 5826 5818 5812 5806 5794 5785 5770 5760 5756 5744 5733 5722 5708 5694
5901 5900 5900 5899 5897 5896 5893 5889 5887 5885 5883 5882 5878 5876 5875 5875 5873 5870 5867 5866 5864 5862 5861 5857 5852 5849 5845 5839 5834 5830 5824 5817 5810 5800 5793 5782 5770 5758 5748 5733 5721 5707 5694 5681 5669
5898 5898 5898 5897 5895 5894 5891 5888 5885 5884 5879 5878 5876 5874 5873 5872 5872 5868 5868 5865 5862 5859 5855 5852 5850 5844 5837 5832 5827 5822 5815 5809 5800 5791 5784 5775 5762 5751 5731 5712 5699 5686 5670 5656 5645
5896 5896 5896 5895 5894 5892 5889 5887 5884 5881 5879 5877 5873 5871 5871 5869 5868 5867 5864 5861 5857 5854 5851 5848 5844 5838 5829 5825 5817 5811 5804 5797 5790 5781 5776 5764 5750 5731 5714 5701 5684 5666 5654 5641 5630
5893 5894 5893 5892 5891 5889 5887 5884 5881 5877 5875 5873 5871 5868 5867 5867 5866 5862 5859 5855 5852 5850 5846 5843 5839 5832 5823 5816 5807 5798 5790 5782 5771 5766 5763 5759 5742 5725 5707 5686 5661 5648 5637 5625 5614
5889 5890 5891 5890 5888 5886 5884 5881 5877 5874 5872 5869 5867 5868 5865 5863 5861 5860 5856 5852 5849 5845 5840 5833 5829 5822 5814 5806 5798 5788 5779 5769 5759 5752 5742 5738 5725 5709 5697 5677 5659 5642 5628 5616 5607
5886 5887 5887 5887 5885 5883 5882 5878 5874 5871 5868 5867 5865 5863 5861 5859 5857 5853 5848 5846 5841 5836 5831 5826 5820 5813 5805 5795 5785 5778 5767 5757 5747 5730 5721 5726 5713 5686 5667 5652 5637 5622 5606 5598 5592
5883 5884 5884 5883 5881 5879 5876 5874 5870 5868 5865 5863 5861 5860 5857 5854 5852 5849 5845 5842 5837 5830 5825 5816 5810 5804 5794 5785 5777 5768 5758 5745 5737 5724 5702 5680 5682 5662 5641 5625 5608 5599 5591 5585 5580
5879 5880 5879 5878 5877 5874 5872 5870 5868 5864 5862 5860 5857 5855 5853 5850 5848 5844 5840 5834 5829 5824 5818 5810 5801 5793 5786 5776 5767 5756 5743 5736 5722 5712 5700 5674 5663 5639 5624 5611 5598 5586 5577 5572 5570
5874 5875 5874 5873 5871 5869 5867 5865 5863 5861 5859 5856 5853 5851 5848 5845 5843 5838 5833 5829 5822 5815 5808 5801 5792 5784 5774 5768 5758 5749 5737 5725 5710 5692 5675 5653 5638 5623 5609 5599 5588 5575 5569 5564 5562
5870 5870 5870 5869 5866 5864 5862 5860 5858 5856 5854 5852 5849 5847 5844 5840 5837 5832 5828 5822 5816 5808 5801 5792 5782 5776 5766 5760 5749 5740 5727 5713 5696 5677 5662 5645 5623 5610 5598 5585 5577 5569 5563 5558 5555
5863 5863 5863 5862 5861 5859 5858 5856 5853 5851 5850 5847 5844 5842 5839 5835 5831 5826 5821 5815 5809 5801 5794 5785 5777 5768 5758 5749 5738 5725 5711 5698 5682 5665 5644 5629 5612 5596 5585 5574 5567 5562 5558 5553 5551
5858 5858 5857 5855 5854 5852 5852 5851 5848 5846 5845 5842 5839 5837 5832 5828 5824 5818 5813 5806 5801 5793 5786 5778 5767 5759 5750 5741 5726 5716 5703 5687 5669 5651 5635 5619 5607 5597 5582 5571 5567 5562 5558 5553 5549
5850 5851 5851 5850 5848 5847 5845 5844 5844 5841 5841 5837 5834 5830 5826 5821 5816 5811 5806 5799 5791 5784 5776 5767 5758 5751 5741 5731 5720 5707 5695 5677 5657 5639 5620 5605 5596 5584 5579 5571 5565 5562 5557 5552 5546